Погода в Аёве

Россия / Омская область     56°55′45″N   72°37′46″E
темп.,
°C
ветер,
м/с
пор.,
м/с
влажн.,
%
обл.,
%
осадки,
мм/ч
давл.,
гПа
погр.,
м
11 мая, вт
вт1100:00+10ссв22585 0.0 102525
03:00+8ссв22700 0.0 102435
06:00+7ссв24750 0.0 102579
09:00+14ссв35480 0.0 1025632
12:00+18ссв45310 0.0 10251657
15:00+20с45230 0.0 10241971
18:00+20с45230 0.0 10241959
21:00+14ссв22380 0.0 102411
12 мая, ср
ср1200:00+12юз1140100 0.0 102410
03:00+11юз224495 0.0 102325
06:00+10з365732 0.0 102293
09:00+16сз4951100 0.0 1021495
12:00+18ссз6841100 0.0 10211419
15:00+18ссз683699 0.0 10211755
18:00+17ссз6835100 0.0 10211947
21:00+13ссз4843100 0.0 1022219
13 мая, чт
чт1300:00+9ссз2650100 0.0 1023105
03:00+9ссз234588 0.0 102250
06:00+10сз1143100 0.0 102218
09:00+12з244499 0.0 1022317
12:00+12зсз2479100 0.1 1021330
15:00+18с375774 0.2 10191381
18:00+19с4853100 0.4 10191643
21:00+15с3874100 0.1 1021262
14 мая, пт
пт1400:00+11с397917 0.1 1024224
03:00+7с37805 0.0 1025145
06:00+6ссв25790 0.0 1027118
09:00+12с23430 0.0 1027619
12:00+17зсз24273 0.0 10261140
15:00+21з45266 0.0 10241539
18:00+22з573558 0.0 10221817
21:00+17юз385821 0.0 1021139
15 мая, сб
сб1500:00+15юз41068100 0.1 1020182
03:00+16зюз4106751 0.1 1019244
06:00+14з26765 0.1 101999
09:00+22зсз364820 0.0 1019451
12:00+27зсз583360 0.0 10182349
15:00+27з5833100 0.0 10172533
18:00+25юз884499 0.6 10151299
21:00+17ююз5117831 1.0 1016254